Location: Gandikunta
(16.3784°N, 80.8378°E)
Time: 00:53:40
(UTC+00:00)

Cosmos 1025 Rocket - Pass Details

Date: 19 May 2025
Orbit: 587 x 611 km, 82.5° (Epoch: 18 June)

Event Time Altitude Azimuth Distance (km) Brightness Sun altitude
Rises 22:53:35 0° 172° (S) 2,845 6.3 -16.5°
Reaches altitude 10° 22:55:52 10° 166° (SSE) 1,940 5.5 -16.0°
Maximum altitude 22:59:58 46° 93° (E) 812 4.1 -15.1°
Drops below altitude 10° 23:04:03 10° 20° (NNE) 1,929 6.3 -14.2°
Sets 23:06:18 0° 14° (NNE) 2,827 7.1 -13.7°
